2021-002G (47315 NORAD) Tracking and Keplerian Element Data

This shows tracking and keplerian element data for the satellite.

Feedback or suggestion? Click here.




ElementValue
Catalog47315
Name2021-002G
Epoch Orbit652
Epoch Day60.87048629
Epoch Year2021
RAAN333.4455
Inclination60.6871
Eccentricity0.0014341
Argument of Perigee318.8369
Mean Anonmoly41.1635
Mean Motion15.2277811
Decay Rate1.429E-05
L11 47315U 21002G 21060.87048629 .00001429 00000-0 72205-4 0 9994
L22 47315 60.6871 333.4455 0014341 318.8369 41.1635 15.22778110 6525

Live tracking and technical data element details for 2021-002G (NORAD 47315). 2021-002G can be tracked NOW for your location showing map with azimuth and elevation plus other details from your city location.

Track the satellite on the map from your city or location and see movement details for azimuth, elevation, latitude, longitude, range, height, and movement on the map or in text.







IsCatalogInMostPopularTable: catalog: 47315, numindb: 10
Update: records affected: 1



GetName: 47315 2021-002G

Hit Count: updated at: Tue, 02 Mar 2021 14:34:09 GMT